FW9447 Weather Reports


time (UTC)temp
C
wind
direction
speed
KPH
gust
KPH
rain 1hr
cm
rain 24hr
cm
rain mn
cm
humidity
%
barometer
mb
20260507220055 12 152 9.7 16.1 0.20 1.07 1.07 98 1001.5
20260507214554 12 151 11.3 17.7 0.20 1.02 1.02 97 1001.3
20260507213053 12 148 3.2 12.9 0.23 0.97 0.97 98 1001.3
20260507211557 12 149 8.0 14.5 0.25 0.91 0.91 98 1001.4
20260507210103 12 158 6.4 14.5 0.25 0.86 0.86 98 1001.2
20260507204551 12 150 11.3 17.7 0.25 0.81 0.81 98 1001.4
20260507203101 12 170 8.0 17.7 0.25 0.74 0.74 98 1001.2
20260507201552 12 145 8.0 17.7 0.25 0.66 0.66 98 1001.4
20260507200053 12 140 8.0 24.1 0.25 0.61 0.61 98 1000.4
20260507194554 12 138 11.3 25.7 0.23 0.53 0.53 98 1000.6
20260507193049 12 140 9.7 20.9 0.25 0.48 0.48 99 1001.4
20260507191552 12 156 9.7 24.1 0.23 0.41 0.41 98 1001.9
20260507190052 12 117 12.9 25.7 0.23 0.36 0.36 98 1003.1
20260507184552 12 110 12.9 20.9 0.20 0.30 0.30 98 1003.4
20260507183055 12 131 11.3 20.9 0.18 0.23 0.23 98 1003.3
20260507181555 12 98 11.3 24.1 0.15 0.18 0.18 98 1004.1
20260507180058 12 153 14.5 27.4 0.13 0.13 0.13 98 1004.0
20260507174607 12 119 14.5 30.6 0.10 0.10 0.10 97 1004.3
20260507173054 12 158 17.7 30.6 0.05 0.05 0.05 97 1004.6
20260507171605 12 132 17.7 32.2 0.03 0.03 0.03 96 1004.5
20260507170053 13 121 20.9 46.7 0.00 0.00 0.00 94 1003.6
20260507164552 13 144 27.4 45.1 0.00 0.00 0.00 91 1003.5
20260507163100 14 148 27.4 49.9 0.00 0.00 0.00 89 1003.5
20260507161559 14 170 29.0 46.7 0.00 0.00 0.00 89 1003.9
20260507160055 15 165 27.4 54.7 0.00 0.00 0.00 88 1003.9
20260507154552 15 175 33.8 59.5 0.00 0.00 0.00 86 1004.3
20260507153101 15 158 32.2 57.9 0.00 0.00 0.00 86 1004.6
20260507151553 15 131 37.0 69.2 0.00 0.00 0.00 86 1005.0
20260507150057 15 157 32.2 57.9 0.00 0.00 0.00 86 1005.2
20260507144557 15 175 32.2 54.7 0.00 0.00 0.00 85 1005.8
20260507143054 15 152 20.9 53.1 0.00 0.00 0.00 84 1006.1
20260507141552 15 157 33.8 77.2 0.00 0.00 0.00 85 1006.2
20260507140108 15 137 25.7 51.5 0.00 0.00 0.00 86 1006.4
20260507134557 15 133 27.4 56.3 0.00 0.00 0.00 88 1006.5
20260507133104 15 119 29.0 54.7 0.00 0.00 0.00 88 1006.5
20260507131553 15 170 29.0 51.5 0.00 0.00 0.00 88 1006.8
20260507130105 15 106 33.8 56.3 0.00 0.00 0.00 87 1007.0
20260507124633 15 165 33.8 69.2 0.00 0.00 0.00 86 1007.4
20260507123053 15 127 35.4 59.5 0.00 0.00 0.00 86 1007.2
20260507121600 14 134 20.9 43.5 0.00 0.00 0.00 91 1007.8
20260507120055 13 155 24.1 43.5 0.00 0.00 0.00 92 1007.4
20260507114612 13 131 27.4 45.1 0.00 0.00 0.00 94 1007.5
20260507113058 13 148 27.4 45.1 0.00 0.00 0.00 95 1007.8
20260507111558 12 170 22.5 38.6 0.00 0.00 0.00 96 1008.3
20260507110054 12 92 20.9 35.4 0.00 0.00 0.00 95 1008.7
20260507104558 12 151 22.5 40.2 0.00 0.00 0.00 95 1008.8
20260507103054 13 161 20.9 41.8 0.00 0.00 0.00 95 1008.8
20260507101559 12 130 22.5 40.2 0.00 0.00 0.00 95 1008.9
20260507100058 12 121 19.3 41.8 0.00 0.00 0.00 95 1009.0
20260507094557 12 152 19.3 32.2 0.00 0.00 0.00 95 1009.2
20260507093056 12 108 17.7 32.2 0.00 0.00 0.00 96 1009.8
20260507091550 12 156 14.5 30.6 0.00 0.00 0.00 96 1009.6
20260507090051 12 150 14.5 29.0 0.00 0.00 0.00 96 1009.2
20260507084555 12 133 20.9 37.0 0.00 0.00 0.00 95 1010.0
20260507083056 12 120 22.5 37.0 0.00 0.00 0.00 95 1010.2
20260507081551 12 142 19.3 35.4 0.00 0.00 0.00 94 1010.4
20260507080056 12 114 20.9 32.2 0.00 0.00 0.00 94 1010.3
20260507074606 12 150 17.7 37.0 0.00 0.00 0.00 94 1010.5
20260507073054 12 154 11.3 30.6 0.00 0.00 0.00 93 1010.4
20260507071554 12 121 12.9 29.0 0.00 0.00 0.00 93 1011.1
20260507070109 12 123 17.7 29.0 0.00 0.00 0.00 93 1011.7
20260507064601 12 143 17.7 32.2 0.00 0.00 0.00 92 1012.0
20260507063058 12 125 16.1 32.2 0.00 0.00 0.00 91 1012.0
20260507061553 12 137 12.9 33.8 0.00 0.00 0.00 91 1012.0
20260507060055 12 160 9.7 25.7 0.00 0.00 0.00 89 1011.9
20260507054557 12 158 11.3 30.6 0.00 0.00 0.00 88 1011.9
20260507053059 12 165 11.3 22.5 0.00 0.00 0.00 86 1012.5
20260507051600 12 165 12.9 24.1 0.00 0.00 0.00 83 1012.9
20260507050056 12 108 12.9 22.5 0.00 0.00 0.00 84 1013.5
20260507044554 12 165 9.7 20.9 0.00 0.00 0.00 84 1014.1
20260507043054 12 136 11.3 22.5 0.00 0.00 0.00 85 1014.3
20260507041556 12 143 8.0 29.0 0.00 0.00 0.00 85 1014.5
20260507034552 12 170 9.7 20.9 0.00 0.00 0.00 87 1015.4
20260507033056 12 165 8.0 17.7 0.00 0.00 0.00 87 1015.7
20260507031604 11 151 8.0 16.1 0.00 0.00 0.00 87 1015.8
20260507030053 12 191 8.0 17.7 0.00 0.00 0.00 87 1016.1
20260507024552 12 147 11.3 19.3 0.00 0.00 0.00 86 1016.3
20260507023052 12 145 4.8 19.3 0.00 0.00 0.00 86 1016.4
20260507021553 12 155 8.0 16.1 0.00 0.00 0.00 85 1016.5
20260507020055 12 148 12.9 20.9 0.00 0.00 0.00 85 1016.6
20260507014557 12 139 12.9 24.1 0.00 0.00 0.00 84 1016.6
20260507013111 12 151 11.3 20.9 0.00 0.00 0.00 84 1016.8
20260507011552 13 142 11.3 22.5 0.00 0.00 0.00 84 1017.0
20260507004554 13 146 16.1 27.4 0.00 0.00 0.00 82 1017.3
20260507003052 13 114 14.5 32.2 0.00 0.00 0.00 81 1017.2
20260507001557 14 146 16.1 30.6 0.00 0.00 0.00 81 1017.2
20260507000055 14 158 17.7 32.2 0.00 0.00 0.00 80 1017.2
20260506234554 15 152 19.3 33.8 0.00 0.00 0.00 79 1017.2
20260506233104 15 111 16.1 33.8 0.00 0.00 0.00 78 1016.9
20260506231600 15 165 17.7 35.4 0.00 0.00 0.00 78 1016.7
20260506230104 16 108 14.5 30.6 0.00 0.00 0.00 77 1016.6
20260506224556 16 151 12.9 29.0 0.00 0.00 0.00 75 1016.3
20260506223055 16 121 16.1 30.6 0.00 0.00 0.00 74 1016.0
20260506221600 16 104 14.5 38.6 0.00 0.00 0.00 73 1016.1